Time,TemperatureF,DewpointF,PressureIn,WindDirection,WindDirectionDegrees,WindSpeedMPH,WindSpeedGustMPH,Humidity,HourlyPrecipIn,Conditions,Clouds,dailyrainin,SoftwareType,DateUTC
2013-02-21 00:22:00,26.0,-99.9,-100.00,WNW,286,9.0,14.0,-999,-99.99,,,-99.99,,2013-02-21 05:22:00,
2013-02-21 00:38:00,26.0,-99.9,-100.00,WNW,286,9.0,14.0,-999,-99.99,,,-99.99,,2013-02-21 05:38:00,
2013-02-21 00:47:00,26.0,-99.9,-100.00,WNW,286,9.0,14.0,-999,-99.99,,,-99.99,,2013-02-21 05:47:00,
2013-02-21 00:52:00,26.0,-99.9,-100.00,West,273,16.0,19.0,-999,-99.99,,,-99.99,,2013-02-21 05:52:00,
2013-02-21 01:21:00,26.0,-99.9,-100.00,West,273,16.0,19.0,-999,-99.99,,,-99.99,,2013-02-21 06:21:00,
2013-02-21 01:31:00,26.0,-99.9,-100.00,West,273,16.0,19.0,-999,-99.99,,,-99.99,,2013-02-21 06:31:00,
2013-02-21 01:42:00,26.0,-99.9,-100.00,West,273,16.0,19.0,-999,-99.99,,,-99.99,,2013-02-21 06:42:00,
2013-02-21 01:52:00,25.0,-99.9,-100.00,WNW,296,6.0,15.0,-999,-99.99,,,-99.99,,2013-02-21 06:52:00,
2013-02-21 02:22:00,25.0,-99.9,-100.00,WNW,296,6.0,15.0,-999,-99.99,,,-99.99,,2013-02-21 07:22:00,
2013-02-21 02:32:00,25.0,-99.9,-100.00,WNW,296,6.0,15.0,-999,-99.99,,,-99.99,,2013-02-21 07:32:00,
2013-02-21 02:42:00,25.0,-99.9,-100.00,WNW,296,6.0,15.0,-999,-99.99,,,-99.99,,2013-02-21 07:42:00,
2013-02-21 02:52:00,24.0,-99.9,-100.00,WNW,285,7.0,12.0,-999,-99.99,,,-99.99,,2013-02-21 07:52:00,
2013-02-21 03:22:00,24.0,-99.9,-100.00,WNW,285,7.0,12.0,-999,-99.99,,,-99.99,,2013-02-21 08:22:00,
2013-02-21 03:32:00,24.0,-99.9,-100.00,WNW,285,7.0,12.0,-999,-99.99,,,-99.99,,2013-02-21 08:32:00,
2013-02-21 03:42:00,24.0,-99.9,-100.00,WNW,285,7.0,12.0,-999,-99.99,,,-99.99,,2013-02-21 08:42:00,
2013-02-21 03:52:00,24.0,-99.9,-100.00,WNW,301,6.0,14.0,-999,-99.99,,,-99.99,,2013-02-21 08:52:00,
2013-02-21 04:22:00,24.0,-99.9,-100.00,WNW,301,6.0,14.0,-999,-99.99,,,-99.99,,2013-02-21 09:22:00,
2013-02-21 04:32:00,24.0,-99.9,-100.00,WNW,301,6.0,14.0,-999,-99.99,,,-99.99,,2013-02-21 09:32:00,
2013-02-21 04:42:00,24.0,-99.9,-100.00,WNW,301,6.0,14.0,-999,-99.99,,,-99.99,,2013-02-21 09:42:00,
2013-02-21 05:21:00,24.0,-99.9,-100.00,WNW,301,6.0,15.0,-999,-99.99,,,-99.99,,2013-02-21 10:21:00,
2013-02-21 05:31:00,24.0,-99.9,-100.00,WNW,301,6.0,15.0,-999,-99.99,,,-99.99,,2013-02-21 10:31:00,
2013-02-21 05:41:00,24.0,-99.9,-100.00,WNW,301,6.0,15.0,-999,-99.99,,,-99.99,,2013-02-21 10:41:00,
2013-02-21 05:51:00,24.0,-99.9,-100.00,WNW,301,6.0,15.0,-999,-99.99,,,-99.99,,2013-02-21 10:51:00,
2013-02-21 05:52:00,24.0,-99.9,-100.00,WNW,298,10.0,12.0,-999,-99.99,,,-99.99,,2013-02-21 10:52:00,
2013-02-21 06:21:00,24.0,-99.9,-100.00,WNW,298,10.0,12.0,-999,-99.99,,,-99.99,,2013-02-21 11:21:00,
2013-02-21 06:31:00,24.0,-99.9,-100.00,WNW,298,10.0,12.0,-999,-99.99,,,-99.99,,2013-02-21 11:31:00,
2013-02-21 06:42:00,24.0,-99.9,-100.00,WNW,298,10.0,12.0,-999,-99.99,,,-99.99,,2013-02-21 11:42:00,
2013-02-21 06:52:00,26.0,-99.9,-100.00,West,279,12.0,13.0,-999,-99.99,,,-99.99,,2013-02-21 11:52:00,
2013-02-21 07:22:00,26.0,-99.9,-100.00,West,279,12.0,13.0,-999,-99.99,,,-99.99,,2013-02-21 12:22:00,
2013-02-21 07:32:00,26.0,-99.9,-100.00,West,279,12.0,13.0,-999,-99.99,,,-99.99,,2013-02-21 12:32:00,
2013-02-21 07:43:00,26.0,-99.9,-100.00,West,279,12.0,13.0,-999,-99.99,,,-99.99,,2013-02-21 12:43:00,
2013-02-21 07:52:00,26.0,-99.9,-100.00,NNW,336,8.0,17.0,-999,-99.99,,,-99.99,,2013-02-21 12:52:00,
2013-02-21 08:22:00,26.0,-99.9,-100.00,NNW,336,8.0,17.0,-999,-99.99,,,-99.99,,2013-02-21 13:22:00,
2013-02-21 08:32:00,26.0,-99.9,-100.00,NNW,336,8.0,17.0,-999,-99.99,,,-99.99,,2013-02-21 13:32:00,
2013-02-21 08:42:00,26.0,-99.9,-100.00,NNW,336,8.0,17.0,-999,-99.99,,,-99.99,,2013-02-21 13:42:00,
2013-02-21 08:52:00,29.0,-99.9,-100.00,NW,305,7.0,28.0,-999,-99.99,,,-99.99,,2013-02-21 13:52:00,
2013-02-21 09:22:00,29.0,-99.9,-100.00,NW,305,7.0,28.0,-999,-99.99,,,-99.99,,2013-02-21 14:22:00,
2013-02-21 09:32:00,29.0,-99.9,-100.00,NW,305,7.0,28.0,-999,-99.99,,,-99.99,,2013-02-21 14:32:00,
2013-02-21 09:42:00,29.0,-99.9,-100.00,NW,305,7.0,28.0,-999,-99.99,,,-99.99,,2013-02-21 14:42:00,
2013-02-21 09:52:00,31.0,-99.9,-100.00,NW,315,17.0,28.0,-999,-99.99,,,-99.99,,2013-02-21 14:52:00,
2013-02-21 10:22:00,31.0,-99.9,-100.00,NW,315,17.0,28.0,-999,-99.99,,,-99.99,,2013-02-21 15:22:00,
2013-02-21 10:32:00,31.0,-99.9,-100.00,NW,315,17.0,28.0,-999,-99.99,,,-99.99,,2013-02-21 15:32:00,
2013-02-21 10:42:00,31.0,-99.9,-100.00,NW,315,17.0,28.0,-999,-99.99,,,-99.99,,2013-02-21 15:42:00,
2013-02-21 10:52:00,33.0,-99.9,-100.00,WNW,295,13.0,22.0,-999,-99.99,,,-99.99,,2013-02-21 15:52:00,
2013-02-21 11:22:00,33.0,-99.9,-100.00,WNW,295,13.0,22.0,-999,-99.99,,,-99.99,,2013-02-21 16:22:00,
2013-02-21 11:32:00,33.0,-99.9,-100.00,WNW,295,13.0,22.0,-999,-99.99,,,-99.99,,2013-02-21 16:32:00,
2013-02-21 11:42:00,33.0,-99.9,-100.00,WNW,295,13.0,22.0,-999,-99.99,,,-99.99,,2013-02-21 16:42:00,
2013-02-21 11:52:00,33.0,-99.9,-100.00,WNW,298,20.0,31.0,-999,-99.99,,,-99.99,,2013-02-21 16:52:00,
2013-02-21 12:22:00,33.0,-99.9,-100.00,WNW,298,20.0,31.0,-999,-99.99,,,-99.99,,2013-02-21 17:22:00,
2013-02-21 12:32:00,33.0,-99.9,-100.00,WNW,298,20.0,31.0,-999,-99.99,,,-99.99,,2013-02-21 17:32:00,
2013-02-21 12:42:00,33.0,-99.9,-100.00,WNW,298,20.0,31.0,-999,-99.99,,,-99.99,,2013-02-21 17:42:00,
2013-02-21 12:52:00,34.0,-99.9,-100.00,West,276,12.0,28.0,-999,-99.99,,,-99.99,,2013-02-21 17:52:00,
2013-02-21 13:22:00,34.0,-99.9,-100.00,West,276,12.0,28.0,-999,-99.99,,,-99.99,,2013-02-21 18:22:00,
2013-02-21 13:32:00,34.0,-99.9,-100.00,West,276,12.0,28.0,-999,-99.99,,,-99.99,,2013-02-21 18:32:00,
2013-02-21 13:42:00,34.0,-99.9,-100.00,West,276,12.0,28.0,-999,-99.99,,,-99.99,,2013-02-21 18:42:00,
2013-02-21 13:52:00,35.0,-99.9,-100.00,WNW,295,13.0,24.0,-999,-99.99,,,-99.99,,2013-02-21 18:52:00,
2013-02-21 14:22:00,35.0,-99.9,-100.00,WNW,295,13.0,24.0,-999,-99.99,,,-99.99,,2013-02-21 19:22:00,
2013-02-21 14:32:00,35.0,-99.9,-100.00,WNW,295,13.0,24.0,-999,-99.99,,,-99.99,,2013-02-21 19:32:00,
2013-02-21 14:42:00,35.0,-99.9,-100.00,WNW,295,13.0,24.0,-999,-99.99,,,-99.99,,2013-02-21 19:42:00,
2013-02-21 14:53:00,36.0,-99.9,-100.00,WNW,301,10.0,26.0,-999,-99.99,,,-99.99,,2013-02-21 19:53:00,
2013-02-21 15:22:00,36.0,-99.9,-100.00,WNW,301,10.0,26.0,-999,-99.99,,,-99.99,,2013-02-21 20:22:00,
2013-02-21 15:32:00,36.0,-99.9,-100.00,WNW,301,10.0,26.0,-999,-99.99,,,-99.99,,2013-02-21 20:32:00,
2013-02-21 15:42:00,36.0,-99.9,-100.00,WNW,301,10.0,26.0,-999,-99.99,,,-99.99,,2013-02-21 20:42:00,
2013-02-21 15:52:00,36.0,-99.9,-100.00,West,265,15.0,28.0,-999,-99.99,,,-99.99,,2013-02-21 20:52:00,
2013-02-21 16:22:00,36.0,-99.9,-100.00,West,265,15.0,28.0,-999,-99.99,,,-99.99,,2013-02-21 21:22:00,
2013-02-21 16:32:00,36.0,-99.9,-100.00,West,265,15.0,28.0,-999,-99.99,,,-99.99,,2013-02-21 21:32:00,
2013-02-21 16:42:00,36.0,-99.9,-100.00,West,265,15.0,28.0,-999,-99.99,,,-99.99,,2013-02-21 21:42:00,
2013-02-21 16:52:00,35.0,-99.9,-100.00,WNW,293,20.0,25.0,-999,-99.99,,,-99.99,,2013-02-21 21:52:00,
2013-02-21 17:22:00,35.0,-99.9,-100.00,WNW,293,20.0,25.0,-999,-99.99,,,-99.99,,2013-02-21 22:22:00,
2013-02-21 17:32:00,35.0,-99.9,-100.00,WNW,293,20.0,25.0,-999,-99.99,,,-99.99,,2013-02-21 22:32:00,
2013-02-21 17:42:00,35.0,-99.9,-100.00,WNW,293,20.0,25.0,-999,-99.99,,,-99.99,,2013-02-21 22:42:00,
2013-02-21 17:52:00,34.0,-99.9,-100.00,North,-999,7.0,22.0,-999,-99.99,,,-99.99,,2013-02-21 22:52:00,
2013-02-21 18:22:00,34.0,-99.9,-100.00,North,-999,7.0,22.0,-999,-99.99,,,-99.99,,2013-02-21 23:22:00,
2013-02-21 18:32:00,34.0,-99.9,-100.00,North,-999,7.0,22.0,-999,-99.99,,,-99.99,,2013-02-21 23:32:00,
2013-02-21 18:42:00,34.0,-99.9,-100.00,North,-999,7.0,22.0,-999,-99.99,,,-99.99,,2013-02-21 23:42:00,
2013-02-21 18:52:00,32.0,-99.9,-100.00,WNW,288,10.0,16.0,-999,-99.99,,,-99.99,,2013-02-21 23:52:00,
2013-02-21 19:32:00,32.0,-99.9,-100.00,WNW,288,10.0,16.0,-999,-99.99,,,-99.99,,2013-02-22 00:32:00,
2013-02-21 19:42:00,32.0,-99.9,-100.00,WNW,288,10.0,16.0,-999,-99.99,,,-99.99,,2013-02-22 00:42:00,
2013-02-21 19:52:00,31.0,-99.9,-100.00,NW,308,10.0,19.0,-999,-99.99,,,-99.99,,2013-02-22 00:52:00,
2013-02-21 20:32:00,31.0,-99.9,-100.00,NW,308,10.0,19.0,-999,-99.99,,,-99.99,,2013-02-22 01:32:00,
2013-02-21 20:42:00,31.0,-99.9,-100.00,NW,308,10.0,19.0,-999,-99.99,,,-99.99,,2013-02-22 01:42:00,
2013-02-21 20:52:00,30.0,-99.9,-100.00,NNW,338,10.0,11.0,-999,-99.99,,,-99.99,,2013-02-22 01:52:00,
2013-02-21 21:32:00,30.0,-99.9,-100.00,NNW,338,10.0,11.0,-999,-99.99,,,-99.99,,2013-02-22 02:32:00,
2013-02-21 21:42:00,30.0,-99.9,-100.00,NNW,338,10.0,11.0,-999,-99.99,,,-99.99,,2013-02-22 02:42:00,
2013-02-21 21:52:00,28.0,-99.9,-100.00,WNW,303,14.0,17.0,-999,-99.99,,,-99.99,,2013-02-22 02:52:00,
2013-02-21 22:22:00,28.0,-99.9,-100.00,WNW,303,14.0,17.0,-999,-99.99,,,-99.99,,2013-02-22 03:22:00,
2013-02-21 22:32:00,28.0,-99.9,-100.00,WNW,303,14.0,17.0,-999,-99.99,,,-99.99,,2013-02-22 03:32:00,
2013-02-21 22:42:00,28.0,-99.9,-100.00,WNW,303,14.0,17.0,-999,-99.99,,,-99.99,,2013-02-22 03:42:00,
2013-02-21 22:52:00,27.0,-99.9,-100.00,NNW,332,11.0,15.0,-999,-99.99,,,-99.99,,2013-02-22 03:52:00,
2013-02-21 23:22:00,27.0,-99.9,-100.00,NNW,332,11.0,15.0,-999,-99.99,,,-99.99,,2013-02-22 04:22:00,
2013-02-21 23:32:00,27.0,-99.9,-100.00,NNW,332,11.0,15.0,-999,-99.99,,,-99.99,,2013-02-22 04:32:00,
2013-02-21 23:42:00,27.0,-99.9,-100.00,NNW,332,11.0,15.0,-999,-99.99,,,-99.99,,2013-02-22 04:42:00,
2013-02-21 23:52:00,27.0,-99.9,-100.00,NNW,345,6.0,12.0,-999,-99.99,,,-99.99,,2013-02-22 04:52:00,